Location: Cheyres
(46.8153°N, 6.7877°E)
Time: 13:56:14
(UTC+00:00)

USA 308 - Pass Details

Date: 11 May 2021
Orbit: 568 x 576 km, 54.0° (Epoch: 10 May)

Event Time Altitude Azimuth Distance (km) Brightness Sun altitude
Rises 21:21:20 0° 301° (WNW) 2,786 7.5 -19.0°
Reaches altitude 10° 21:23:36 10° 299° (WNW) 1,886 6.4 -19.2°
Maximum altitude 21:27:52 69° 216° (SW) 616 2.9 -19.5°
Enters shadow 21:28:44 52° 156° (SSE) 715 2.9 -19.6°
